Overview Statistics Trail Chart Weather Telemetry Raw packets
 

This is the latest recevied weather packets stored in our database for station/object OE5MMP-13. If no packets are shown the sender has not sent any weather packets the latest 10 day(s).

<< 26 27 28 29 30 31 32 >>
Time Temp. Humidity Pressure Rain* Wind** Luminosity Snow
1788284591 18.33° C 65% 1021 hPa 0 mm - 6 W/m² -
1788283991 18.89° C 64% 1021 hPa 0 mm - 12 W/m² -
1788283391 20° C 62% 1021.2 hPa 0 mm - 16 W/m² -
1788282791 21.67° C 59% 1021.2 hPa 0 mm - 25 W/m² -
1788282192 22.22° C 57% 1021.2 hPa 0 mm - 40 W/m² -
1788281591 22.78° C 54% 1021.4 hPa 0 mm - 59 W/m² -
1788280991 23.33° C 51% 1021.4 hPa 0 mm - 87 W/m² -
1788280391 23.33° C 51% 1021.3 hPa 0 mm - 117 W/m² -
1788279791 23.33° C 52% 1021.4 hPa 0 mm - 148 W/m² -
1788279191 23.33° C 52% 1021.4 hPa 0 mm - 181 W/m² -
1788278591 23.89° C 51% 1021.4 hPa 0 mm - 210 W/m² -
1788277991 23.33° C 51% 1021.5 hPa 0 mm - 239 W/m² -
1788277391 23.33° C 51% 1021.5 hPa 0 mm - 264 W/m² -
1788276791 23.89° C 51% 1021.5 hPa 0 mm - 293 W/m² -
1788276191 23.33° C 52% 1021.4 hPa 0 mm - 320 W/m² -
1788275591 23.33° C 53% 1021.5 hPa 0 mm - 351 W/m² -
1788274991 23.33° C 51% 1021.5 hPa 0 mm - 381 W/m² -
1788274391 23.33° C 52% 1021.7 hPa 0 mm - 90 W/m² -
1788273791 23.33° C 52% 1021.6 hPa 0 mm - 446 W/m² -
1788273191 23.33° C 51% 1021.6 hPa 0 mm - 459 W/m² -
1788272590 22.78° C 51% 1021.7 hPa 0 mm - 483 W/m² -
1788271990 22.78° C 53% 1021.6 hPa 0 mm - 501 W/m² -
1788271390 22.78° C 50% 1021.7 hPa 0 mm - 526 W/m² -
1788270790 22.78° C 53% 1021.7 hPa 0 mm - 539 W/m² -
1788270190 22.78° C 52% 1021.9 hPa 0 mm - 604 W/m² -

* Rain latest hour (hover to see other rain measurements)
** Current wind speed in m/s (hover to see current wind gust speed)